EW7034 Weather Reports


Display with metric or nautical units.
time (UTC)temp
F
wind
direction
speed
MPH
gust
MPH
rain 1hr
in
rain 24hr
in
rain mn
in
humidity
%
barometer
mb
20260508090009 56 0.0 0.0 0.00 0.00 0.00 65 1016.2
20260508084508 56 0.0 0.0 0.00 0.00 0.00 66 1016.2
20260508083005 55 0.0 0.0 0.00 0.00 0.00 69 1016.2
20260508081524 54 0.0 0.0 0.00 0.00 0.00 73 1016.2
20260508080008 53 0.0 0.0 0.00 0.00 0.00 74 1016.1
20260508074512 52 0.0 0.0 0.00 0.00 0.00 76 1016.0
20260508073008 51 0.0 0.0 0.00 0.00 0.00 79 1015.8
20260508071517 50 0.0 0.0 0.00 0.00 0.00 82 1015.7
20260508070008 49 0.0 0.0 0.00 0.00 0.00 85 1015.7
20260508064510 47 0.0 0.0 0.00 0.00 0.00 88 1015.6
20260508063007 45 0.0 0.0 0.00 0.00 0.00 91 1015.4
20260508061508 44 0.0 0.0 0.00 0.00 0.00 91 1015.3
20260508060016 43 0.0 0.0 0.00 0.00 0.00 93 1015.1
20260508054509 41 0.0 0.0 0.00 0.00 0.00 94 1015.0
20260508053010 40 0.0 0.0 0.00 0.00 0.00 93 1015.2
20260508051522 39 0.0 0.0 0.00 0.00 0.00 93 1015.1
20260508050027 39 0.0 0.0 0.00 0.00 0.00 92 1015.0
20260508044526 39 0.0 0.0 0.00 0.00 0.00 92 1015.0
20260508043016 39 0.0 0.0 0.00 0.00 0.00 92 1014.7
20260508041504 39 0.0 0.0 0.00 0.00 0.00 92 1014.8
20260508040006 39 0.0 0.0 0.00 0.00 0.00 92 1014.6
20260508034509 39 0.0 0.0 0.00 0.00 0.00 92 1014.6
20260508033007 39 0.0 0.0 0.00 0.00 0.00 92 1014.6
20260508031508 39 0.0 0.0 0.00 0.00 0.00 91 1014.6
20260508030003 40 0.0 0.0 0.00 0.00 0.00 91 1014.6
20260508024507 40 0.0 0.0 0.00 0.00 0.00 91 1014.6
20260508023008 40 0.0 0.0 0.00 0.00 0.00 91 1014.5
20260508021511 41 0.0 0.0 0.00 0.00 0.00 90 1014.5
20260508020009 41 0.0 0.0 0.00 0.00 0.00 90 1014.4
20260508014504 42 0.0 0.0 0.00 0.00 0.00 90 1014.3
20260508013007 42 0.0 0.0 0.00 0.00 0.00 90 1014.3
20260508011513 42 0.0 0.0 0.00 0.00 0.00 90 1014.2
20260508010007 42 0.0 0.0 0.00 0.00 0.00 89 1014.3
20260508004508 43 0.0 0.0 0.00 0.00 0.00 88 1014.3
20260508003007 43 0.0 0.0 0.00 0.00 0.00 88 1014.3
20260508001520 43 0.0 0.0 0.00 0.00 0.00 88 1014.3
20260508000007 43 0.0 0.0 0.00 0.00 0.00 88 1014.4
20260507234506 44 0.0 0.0 0.00 0.00 0.00 87 1014.4
20260507233019 44 0.0 0.0 0.00 0.00 0.00 85 1014.4
20260507231511 45 0.0 0.0 0.00 0.00 0.00 84 1014.3
20260507230025 46 0.0 0.0 0.00 0.00 0.00 82 1014.3
20260507224527 47 0.0 0.0 0.00 0.00 0.00 81 1014.2
20260507223024 47 0.0 0.0 0.00 0.00 0.00 83 1014.1
20260507221527 47 0.0 0.0 0.00 0.00 0.00 82 1014.1
20260507220015 47 0.0 0.0 0.00 0.00 0.00 81 1014.1
20260507214516 48 0.0 0.0 0.00 0.00 0.00 79 1014.1
20260507213020 49 0.0 0.0 0.00 0.00 0.00 78 1013.9
20260507211537 50 0.0 0.0 0.00 0.00 0.00 76 1013.9
20260507210029 50 0.0 0.0 0.00 0.00 0.00 75 1013.8
20260507204510 51 0.0 0.0 0.00 0.00 0.00 74 1013.8
20260507203017 51 0.0 0.0 0.00 0.00 0.00 74 1013.5
20260507201533 51 0.0 0.0 0.00 0.00 0.00 74 1013.4
20260507200033 52 0.0 0.0 0.00 0.00 0.00 73 1013.3
20260507194526 52 0.0 0.0 0.00 0.00 0.00 72 1013.2
20260507193017 52 0.0 0.0 0.00 0.00 0.00 72 1013.1
20260507191524 53 0.0 0.0 0.00 0.00 0.00 71 1013.1
20260507190022 54 0.0 0.0 0.00 0.00 0.00 70 1013.0
20260507184526 54 0.0 0.0 0.00 0.00 0.00 69 1012.9
20260507183031 55 0.0 0.0 0.00 0.00 0.00 68 1012.8
20260507181517 54 0.0 0.0 0.00 0.00 0.00 69 1012.6
20260507180037 54 0.0 0.0 0.00 0.00 0.00 68 1012.5
20260507174526 55 0.0 0.0 0.00 0.00 0.00 67 1012.6
20260507173028 56 0.0 0.0 0.00 0.00 0.00 63 1012.5
20260507171527 56 0.0 0.0 0.00 0.00 0.00 63 1012.5
20260507170039 56 0.0 0.0 0.00 0.00 0.00 61 1012.5
20260507164525 55 0.0 0.0 0.00 0.00 0.00 64 1012.4
20260507163025 55 0.0 0.0 0.00 0.00 0.00 64 1012.5
20260507161526 55 0.0 0.0 0.00 0.00 0.00 71 1012.5
20260507160026 56 0.0 0.0 0.00 0.00 0.00 74 1012.5
20260507154523 56 0.0 0.0 0.00 0.00 0.00 74 1012.5
20260507153025 56 0.0 0.0 0.00 0.00 0.00 74 1012.5
20260507151525 56 0.0 0.0 0.00 0.00 0.00 72 1012.4
20260507150026 56 0.0 0.0 0.00 0.00 0.00 65 1012.5
20260507144524 56 0.0 0.0 0.00 0.00 0.00 64 1012.6
20260507143025 57 0.0 0.0 0.00 0.00 0.00 65 1012.7
20260507141508 56 0.0 0.0 0.00 0.00 0.00 63 1012.9
20260507140011 55 0.0 0.0 0.00 0.00 0.00 63 1013.1
20260507134519 55 0.0 0.0 0.00 0.00 0.00 68 1013.1
20260507133023 56 0.0 0.0 0.00 0.00 0.00 62 1013.0
20260507131528 56 0.0 0.0 0.00 0.00 0.00 61 1013.1
20260507130011 56 0.0 0.0 0.00 0.00 0.00 59 1013.2
20260507124515 57 0.0 0.0 0.00 0.00 0.00 55 1013.1
20260507123023 58 0.0 0.0 0.00 0.00 0.00 56 1013.1
20260507121525 58 0.0 0.0 0.00 0.00 0.00 55 1013.1
20260507120028 58 0.0 0.0 0.00 0.00 0.00 53 1013.2
20260507114512 58 0.0 0.0 0.00 0.00 0.00 54 1013.2
20260507113023 58 0.0 0.0 0.00 0.00 0.00 55 1013.2
20260507111523 58 0.0 0.0 0.00 0.00 0.00 56 1013.2
20260507110024 57 0.0 0.0 0.00 0.00 0.00 54 1013.2
20260507104523 56 0.0 0.0 0.00 0.00 0.00 57 1013.1
20260507103018 56 0.0 0.0 0.00 0.00 0.00 58 1013.3
20260507101521 57 0.0 0.0 0.00 0.00 0.00 58 1013.4
20260507100023 57 0.0 0.0 0.00 0.00 0.00 57 1013.4
20260507094525 56 0.0 0.0 0.00 0.00 0.00 60 1013.3
20260507093028 56 0.0 0.0 0.00 0.00 0.00 58 1013.5
20260507091524 56 0.0 0.0 0.00 0.00 0.00 61 1013.5